CAL211 RCTP-RCKH

Flight info

Callsign CAL211
Flight time 0h 48m
Altitude 24000
Route CHALI1A CHALI T3 MKG W6 TNN TNN1M
Aircraft B738/M-SDE2E3FGHIRWXY/LB1

Departure

Time 2026-04-30 11:16
Airport Taiwan Taoyuan International Airport (RCTP)

Arrival

Time 2026-04-30 12:05
Airport Kaohsiung International Airport (RCKH)
Time Latitude Longitude Altitude Speed Heading
2026-04-30 11:14 25.06246 121.22351 98 ft 0 kts 138°
2026-04-30 11:15 25.06240 121.22357 97 ft 3 kts 140°
2026-04-30 11:15 25.06186 121.22409 96 ft 17 kts 128°
2026-04-30 11:15 25.06204 121.22506 96 ft 18 kts 49°
2026-04-30 11:16 25.06440 121.22803 93 ft 85 kts 51°
2026-04-30 11:16 25.06960 121.23458 96 ft 139 kts 47°
2026-04-30 11:16 25.07657 121.24296 564 ft 145 kts 44°
2026-04-30 11:16 25.08348 121.25165 1020 ft 161 kts 44°
2026-04-30 11:17 25.09137 121.26127 1385 ft 186 kts 50°
2026-04-30 11:17 25.09996 121.27283 1861 ft 196 kts 51°
2026-04-30 11:17 25.10862 121.28439 2370 ft 201 kts 50°
2026-04-30 11:17 25.11783 121.29632 2905 ft 207 kts 45°
2026-04-30 11:18 25.13115 121.30354 3219 ft 227 kts
2026-04-30 11:18 25.16047 121.28917 4211 ft 249 kts 316°
2026-04-30 11:18 25.17223 121.27505 4827 ft 249 kts 310°
2026-04-30 11:19 25.18356 121.26074 5460 ft 245 kts 308°
2026-04-30 11:19 25.19490 121.24643 5995 ft 248 kts 308°
2026-04-30 11:19 25.20619 121.23242 6726 ft 241 kts 307°
2026-04-30 11:19 25.21750 121.21849 7210 ft 245 kts 307°
2026-04-30 11:20 25.22893 121.20450 7698 ft 247 kts 308°
2026-04-30 11:20 25.24064 121.19024 8121 ft 253 kts 308°
2026-04-30 11:20 25.25248 121.17588 8662 ft 253 kts 307°
2026-04-30 11:20 25.26436 121.16147 9153 ft 255 kts 307°
2026-04-30 11:21 25.27516 121.14605 9611 ft 252 kts 290°
2026-04-30 11:21 25.27849 121.12782 10090 ft 245 kts 265°
2026-04-30 11:21 25.27473 121.10967 10570 ft 243 kts 246°
2026-04-30 11:21 25.26539 121.09408 11013 ft 246 kts 232°
2026-04-30 11:22 25.25409 121.07976 11465 ft 248 kts 231°
2026-04-30 11:22 25.24253 121.06549 11922 ft 250 kts 231°
2026-04-30 11:22 25.23099 121.05109 12386 ft 251 kts 231°
2026-04-30 11:22 25.21944 121.03656 12853 ft 252 kts 232°
2026-04-30 11:23 25.20785 121.02192 13345 ft 254 kts 232°
2026-04-30 11:23 25.19577 121.00792 13791 ft 257 kts 228°
2026-04-30 11:23 25.16970 120.98037 14636 ft 261 kts 228°
2026-04-30 11:24 25.15655 120.96642 15056 ft 263 kts 228°
2026-04-30 11:24 25.14327 120.95227 15466 ft 267 kts 228°
2026-04-30 11:24 25.12989 120.93797 15868 ft 269 kts 229°
2026-04-30 11:25 25.10295 120.90893 16678 ft 273 kts 229°
2026-04-30 11:25 25.08932 120.89421 17085 ft 275 kts 229°
2026-04-30 11:25 25.06177 120.86447 17866 ft 279 kts 229°
2026-04-30 11:26 25.03382 120.83433 18577 ft 283 kts 229°
2026-04-30 11:26 25.01970 120.81912 18910 ft 284 kts 229°
2026-04-30 11:26 25.00550 120.80382 19247 ft 286 kts 229°
2026-04-30 11:27 24.99144 120.78868 19570 ft 287 kts 229°
2026-04-30 11:27 24.97712 120.77326 19897 ft 289 kts 229°
2026-04-30 11:27 24.96268 120.75772 20221 ft 290 kts 229°
2026-04-30 11:27 24.94820 120.74214 20541 ft 292 kts 229°
2026-04-30 11:28 24.91897 120.71071 21148 ft 295 kts 229°
2026-04-30 11:28 24.90424 120.69488 21451 ft 296 kts 229°
2026-04-30 11:28 24.88942 120.67896 21747 ft 298 kts 229°
2026-04-30 11:29 24.87455 120.66298 22035 ft 299 kts 229°
2026-04-30 11:29 24.85960 120.64693 22323 ft 301 kts 229°
2026-04-30 11:29 24.82948 120.61462 22875 ft 304 kts 229°
2026-04-30 11:30 24.79909 120.58202 23402 ft 307 kts 229°
2026-04-30 11:30 24.78396 120.56580 23651 ft 308 kts 229°
2026-04-30 11:30 24.76858 120.54932 23873 ft 309 kts 229°
2026-04-30 11:31 24.75315 120.53280 24057 ft 310 kts 229°
2026-04-30 11:31 24.73755 120.51609 24055 ft 313 kts 229°
2026-04-30 11:31 24.72131 120.50012 24063 ft 314 kts 223°
2026-04-30 11:31 24.70349 120.48611 24073 ft 315 kts 220°
2026-04-30 11:32 24.68525 120.47271 24056 ft 315 kts 219°
2026-04-30 11:32 24.66694 120.45935 24058 ft 315 kts 219°
2026-04-30 11:32 24.64872 120.44594 24063 ft 315 kts 219°
2026-04-30 11:33 24.61243 120.41885 24062 ft 316 kts 220°
2026-04-30 11:33 24.59428 120.40519 24064 ft 316 kts 220°
2026-04-30 11:33 24.57640 120.39171 24062 ft 316 kts 220°
2026-04-30 11:33 24.55827 120.37801 24062 ft 316 kts 220°
2026-04-30 11:34 24.54013 120.36430 24067 ft 317 kts 220°
2026-04-30 11:34 24.52193 120.35055 24066 ft 317 kts 220°
2026-04-30 11:34 24.50372 120.33679 24065 ft 317 kts 220°
2026-04-30 11:34 24.48553 120.32306 24057 ft 318 kts 220°
2026-04-30 11:35 24.46732 120.30932 24056 ft 318 kts 220°
2026-04-30 11:35 24.44909 120.29553 24048 ft 318 kts 220°
2026-04-30 11:35 24.43101 120.28160 24061 ft 317 kts 220°
2026-04-30 11:35 24.41299 120.26762 24064 ft 317 kts 220°
2026-04-30 11:36 24.39500 120.25363 24055 ft 317 kts 220°
2026-04-30 11:36 24.37700 120.23966 24057 ft 317 kts 220°
2026-04-30 11:36 24.35899 120.22569 24056 ft 317 kts 220°
2026-04-30 11:36 24.34097 120.21172 24058 ft 317 kts 220°
2026-04-30 11:37 24.32296 120.19779 24058 ft 317 kts 220°
2026-04-30 11:37 24.30497 120.18386 24053 ft 317 kts 220°
2026-04-30 11:37 24.28697 120.16994 24055 ft 317 kts 220°
2026-04-30 11:37 24.26919 120.15619 24058 ft 317 kts 220°
2026-04-30 11:38 24.25116 120.14226 24059 ft 317 kts 220°
2026-04-30 11:38 24.23314 120.12833 24056 ft 316 kts 220°
2026-04-30 11:38 24.21518 120.11446 24039 ft 317 kts 220°
2026-04-30 11:38 24.19715 120.10053 24044 ft 317 kts 220°
2026-04-30 11:39 24.17914 120.08664 24048 ft 317 kts 220°
2026-04-30 11:39 24.16108 120.07271 24054 ft 317 kts 220°
2026-04-30 11:39 24.14914 120.06350 24053 ft 317 kts 220°
2026-04-30 11:39 24.12502 120.04484 24062 ft 317 kts 220°
2026-04-30 11:40 24.10695 120.03085 24054 ft 318 kts 220°
2026-04-30 11:40 24.08910 120.01704 24056 ft 318 kts 220°
2026-04-30 11:40 24.07104 120.00306 24056 ft 318 kts 220°
2026-04-30 11:40 24.05881 119.99360 24045 ft 319 kts 220°
2026-04-30 11:41 24.04058 119.97950 24033 ft 324 kts 220°
2026-04-30 11:41 24.02210 119.96520 24027 ft 335 kts 220°
2026-04-30 11:41 24.00264 119.95013 24038 ft 350 kts 219°
2026-04-30 11:41 23.98230 119.93442 24065 ft 364 kts 219°
2026-04-30 11:42 23.96122 119.91814 24070 ft 378 kts 219°
2026-04-30 11:42 23.93936 119.90130 24072 ft 390 kts 219°
2026-04-30 11:42 23.91687 119.88400 24063 ft 401 kts 219°
2026-04-30 11:42 23.89375 119.86622 24062 ft 410 kts 219°
2026-04-30 11:43 23.87011 119.84805 24056 ft 419 kts 218°
2026-04-30 11:43 23.84611 119.82960 24057 ft 426 kts 218°
2026-04-30 11:43 23.82161 119.81078 24056 ft 433 kts 218°
2026-04-30 11:43 23.79680 119.79173 24052 ft 439 kts 218°
2026-04-30 11:44 23.77165 119.77241 24054 ft 444 kts 218°
2026-04-30 11:44 23.74627 119.75294 24050 ft 448 kts 218°
2026-04-30 11:44 23.72071 119.73332 24042 ft 452 kts 218°
2026-04-30 11:44 23.69515 119.71372 24046 ft 455 kts 218°
2026-04-30 11:45 23.66876 119.69445 24028 ft 460 kts 212°
2026-04-30 11:45 23.63835 119.68274 24058 ft 470 kts 194°
2026-04-30 11:45 23.60539 119.68098 24054 ft 479 kts 178°
2026-04-30 11:45 23.57262 119.68890 24052 ft 488 kts 163°
2026-04-30 11:46 23.54219 119.70581 24055 ft 496 kts 148°
2026-04-30 11:46 23.51673 119.73152 24061 ft 502 kts 134°
2026-04-30 11:46 23.49395 119.76043 24050 ft 503 kts 133°
2026-04-30 11:46 23.47149 119.78970 24033 ft 502 kts 132°
2026-04-30 11:47 23.44904 119.81871 24017 ft 500 kts 133°
2026-04-30 11:47 23.42663 119.84718 23609 ft 491 kts 133°
2026-04-30 11:47 23.40437 119.87497 22919 ft 484 kts 134°
2026-04-30 11:47 23.38229 119.90236 22213 ft 477 kts 134°
2026-04-30 11:48 23.36076 119.92904 21529 ft 472 kts 134°
2026-04-30 11:48 23.33909 119.95575 20713 ft 470 kts 134°
2026-04-30 11:48 23.31751 119.98225 19998 ft 466 kts 134°
2026-04-30 11:48 23.29605 120.00857 19304 ft 462 kts 134°
2026-04-30 11:49 23.27481 120.03462 18623 ft 459 kts 135°
2026-04-30 11:49 23.25373 120.06048 17869 ft 455 kts 135°
2026-04-30 11:49 23.23277 120.08619 17152 ft 451 kts 135°
2026-04-30 11:49 23.21212 120.11153 16472 ft 445 kts 135°
2026-04-30 11:50 23.19166 120.13661 15824 ft 440 kts 134°
2026-04-30 11:50 23.17144 120.16138 15176 ft 435 kts 134°
2026-04-30 11:50 23.15131 120.18573 14522 ft 430 kts 137°
2026-04-30 11:50 23.12765 120.20471 13891 ft 418 kts 156°
2026-04-30 11:51 23.10059 120.21478 13244 ft 406 kts 171°
2026-04-30 11:51 23.07344 120.22050 12618 ft 400 kts 173°
2026-04-30 11:51 23.04618 120.22604 11994 ft 395 kts 173°
2026-04-30 11:51 23.01933 120.23153 11400 ft 390 kts 173°
2026-04-30 11:52 22.99307 120.23701 11178 ft 376 kts 172°
2026-04-30 11:52 22.96787 120.24236 11004 ft 362 kts 172°
2026-04-30 11:52 22.94357 120.24758 10858 ft 349 kts 172°
2026-04-30 11:52 22.92021 120.25261 10716 ft 337 kts 173°
2026-04-30 11:53 22.89757 120.25750 10574 ft 326 kts 173°
2026-04-30 11:53 22.87569 120.26222 10441 ft 315 kts 173°
2026-04-30 11:53 22.85454 120.26679 10313 ft 305 kts 173°
2026-04-30 11:53 22.83401 120.27122 10189 ft 295 kts 173°
2026-04-30 11:54 22.81442 120.27544 10068 ft 287 kts 173°
2026-04-30 11:54 22.79498 120.27962 9780 ft 284 kts 173°
2026-04-30 11:54 22.77536 120.28383 9478 ft 282 kts 173°
2026-04-30 11:54 22.75642 120.28790 9167 ft 280 kts 173°
2026-04-30 11:55 22.73729 120.29201 8866 ft 279 kts 172°
2026-04-30 11:55 22.71828 120.29610 8577 ft 278 kts 172°
2026-04-30 11:55 22.69932 120.30019 8291 ft 277 kts 172°
2026-04-30 11:55 22.68040 120.30426 8001 ft 276 kts 172°
2026-04-30 11:56 22.66160 120.30831 7715 ft 276 kts 172°
2026-04-30 11:56 22.64279 120.31237 7439 ft 275 kts 172°
2026-04-30 11:56 22.62409 120.31639 7153 ft 274 kts 172°
2026-04-30 11:56 22.60538 120.32042 6872 ft 273 kts 172°
2026-04-30 11:57 22.58668 120.32445 6577 ft 274 kts 171°
2026-04-30 11:57 22.56911 120.33253 6251 ft 279 kts 147°
2026-04-30 11:57 22.55385 120.34516 5944 ft 280 kts 145°
2026-04-30 11:57 22.53845 120.35795 5652 ft 279 kts 144°
2026-04-30 11:58 22.52306 120.37061 5373 ft 277 kts 144°
2026-04-30 11:58 22.50764 120.38319 5078 ft 277 kts 144°
2026-04-30 11:58 22.49228 120.39565 4769 ft 275 kts 144°
2026-04-30 11:58 22.47699 120.40811 4505 ft 274 kts 142°
2026-04-30 11:59 22.46520 120.42402 4198 ft 274 kts 112°
2026-04-30 11:59 22.46219 120.44405 3947 ft 271 kts 84°
2026-04-30 11:59 22.46788 120.46278 3801 ft 263 kts 58°
2026-04-30 11:59 22.47982 120.47718 3664 ft 254 kts 37°
2026-04-30 12:00 22.49441 120.48753 3555 ft 247 kts 31°
2026-04-30 12:00 22.50897 120.49697 3442 ft 239 kts 31°
2026-04-30 12:00 22.52290 120.50604 3337 ft 229 kts 32°
2026-04-30 12:00 22.53637 120.51489 3152 ft 226 kts 31°
2026-04-30 12:01 22.55097 120.51999 2934 ft 221 kts 357°
2026-04-30 12:01 22.56462 120.51393 2751 ft 211 kts 314°
2026-04-30 12:01 22.57082 120.50041 2593 ft 198 kts 280°
2026-04-30 12:01 22.57275 120.48585 2335 ft 192 kts 274°
2026-04-30 12:02 22.57340 120.47180 2088 ft 181 kts 271°
2026-04-30 12:02 22.57375 120.45868 1872 ft 175 kts 271°
2026-04-30 12:02 22.57413 120.44579 1661 ft 167 kts 272°
2026-04-30 12:02 22.57449 120.43362 1484 ft 154 kts 272°
2026-04-30 12:03 22.57483 120.42265 1258 ft 139 kts 274°
2026-04-30 12:03 22.57547 120.40223 942 ft 141 kts 274°
2026-04-30 12:03 22.57585 120.39163 767 ft 142 kts 275°
2026-04-30 12:04 22.57604 120.38090 493 ft 140 kts 275°
2026-04-30 12:04 22.57632 120.37082 274 ft 130 kts 279°
2026-04-30 12:04 22.57672 120.36073 72 ft 136 kts 274°
2026-04-30 12:04 22.57705 120.35080 35 ft 119 kts 271°
2026-04-30 12:05 22.57727 120.34425 38 ft 58 kts 272°
2026-04-30 12:05 22.57740 120.34035 37 ft 49 kts 273°
2026-04-30 12:05 22.57752 120.33688 37 ft 43 kts 272°
2026-04-30 12:05 22.57703 120.33504 36 ft 1 kts 195°
2026-04-30 12:06 22.57699 120.33505 34 ft 0 kts 181°
2026-04-30 12:06 22.57697 120.33505 35 ft 1 kts 181°
2026-04-30 12:06 22.57693 120.33504 36 ft 1 kts 181°
2026-04-30 12:06 22.57681 120.33504 36 ft 3 kts 182°
2026-04-30 12:07 22.57655 120.33503 37 ft 6 kts 182°
2026-04-30 12:07 22.57594 120.33521 37 ft 14 kts 143°
2026-04-30 12:07 22.57507 120.33608 36 ft 19 kts 137°
2026-04-30 12:07 22.57420 120.33730 37 ft 22 kts 99°
2026-04-30 12:08 22.57414 120.33912 37 ft 26 kts 92°
2026-04-30 12:08 22.57407 120.34117 37 ft 29 kts 91°
2026-04-30 12:08 22.57399 120.34307 37 ft 5 kts 111°
2026-04-30 12:08 22.57393 120.34310 37 ft 2 kts 153°
2026-04-30 12:09 22.57364 120.34317 37 ft 7 kts 160°
2026-04-30 12:09 22.57325 120.34312 37 ft 4 kts 236°
2026-04-30 12:09 22.57330 120.34284 37 ft 8 kts 276°
2026-04-30 12:09 22.57332 120.34253 37 ft 1 kts 273°
2026-04-30 12:10 22.57332 120.34244 37 ft 1 kts 271°
2026-04-30 12:10 22.57332 120.34234 37 ft 2 kts 271°
2026-04-30 12:10 22.57332 120.34228 37 ft 0 kts 271°